Location: Concepci�n
(32.5333°N, 117.1167°W)
Time: 19:32:36
(UTC+00:00)

Cosmos 2297 Rocket - Pass Details

Date: 08 May 2021
Orbit: 838 x 845 km, 71.0° (Epoch: 18 June)

Event Time Altitude Azimuth Distance (km) Brightness Sun altitude
Rises 12:01:46 0° 321° (NW) 3,405 5.2 -11.0°
Reaches altitude 10° 12:04:49 10° 305° (NW) 2,466 4.4 -10.5°
Maximum altitude 12:08:49 20° 260° (W) 1,848 3.4 -9.7°
Drops below altitude 10° 12:12:49 10° 214° (SW) 2,456 4.1 -9.0°
Sets 12:15:52 0° 198° (SSW) 3,386 4.9 -8.4°
